RH
51 54 55 57 55 57 63 63 57 79 82 82 87 88 87 86 88 87 88 87 85 84 83 80 78 76 76
61 59 60 58 57 66 58 58 64 75 83 85 87 86 86 87 88 93 86 86 86 85 85 84 84 83 81
75 63 68 63 71 67 72 79 80 85 79 85 84 82 88 87 86 84 89 90 89 89 88 87 88 85 86
79 69 65 63 77 85 80 74 74 65 75 80 82 86 79 75 83 86 85 84 87 87 87 88 89 90 91
80 75 73 71 78 78 88 84 74 73 82 83 76 73 73 74 80 89 88 90 87 87 87 87 89 90 92
78 80 73 72 79 89 88 91 90 68 86 76 73 79 74 73 82 90 90 85 82 84 85 85 86 90 92
77 76 81 78 83 81 81 83 87 79 79 84 76 87 80 76 86 92 88 86 86 84 83 83 82 85 89
76 73 74 71 73 73 76 79 78 72 69 92 78 81 76 74 79 84 87 87 86 83 82 82 82 82 82
81 78 77 73 71 77 80 82 85 74 69 84 86 89 78 77 82 82 80 80 81 79 79 80 80 79 77
80 79 75 75 79 75 79 89 87 86 95 92 89 87 89 77 84 76 77 78 78 79 80 79 79 77 76
80 79 79 79 78 75 82 91 90 87 79 89 96 87 87 94 84 69 77 72 71 77 77 77 77 78 81
89 89 88 86 85 84 89 89 88 93 80 82 93 90 90 88 86 79 75 74 81 76 75 75 76 75 75
92 92 91 90 97 95 96 96 95 97 87 96 96 96 96 97 93 86 85 78 80 84 80 78 77 82 89
89 86 88 92 91 90 91 92 95 90 92 97 99 99 98 95 94 89 83 93 82 83 85 80 74 72 76
92 90 89 90 90 91 94 97 96 88 91 86 90 93 96 97 94 87 90 91 86 91 90 84 78 72 69
96 96 93 92 92 93 95 98 98 90 97 90 91 93 92 90 90 94 90 92 91 92 90 90 81 69 65
97 96 93 94 95 95 96 93 91 87 90 91 96 97 96 93 77 78 95 93 92 92 89 88 87 78 70
Wind_Speed
8 9 12 11 11 10 10 10 10 12 13 13 11 13 13 11 10 11 10 10 10 12 15 17 19 20 20
10 9 10 10 11 11 9 8 8 10 12 12 11 13 12 10 9 8 9 8 8 10 13 15 16 18 19
10 8 7 9 9 11 9 7 5 8 12 12 12 11 9 8 10 9 7 9 11 11 12 11 13 16 18
9 9 8 7 6 6 6 6 8 9 9 9 11 7 9 13 11 10 9 10 11 11 11 12 13 14 17
9 8 8 7 6 6 6 7 9 8 4 4 7 9 9 10 9 10 8 7 9 13 13 13 15 15 16
8 8 11 9 8 5 7 7 6 3 7 9 9 9 8 8 11 9 5 5 9 12 13 13 16 17 15
12 11 9 8 5 8 9 9 7 7 10 10 7 7 6 6 10 6 6 5 7 10 13 14 16 18 17
11 10 9 9 9 7 10 11 9 8 7 7 4 9 8 8 12 8 5 6 7 10 12 14 16 19 17
16 14 14 15 12 6 7 7 7 4 3 4 4 6 8 7 1 5 6 6 10 10 11 13 17 19 11
7 11 12 9 10 8 6 7 7 6 2 2 3 4 5 3 3 2 3 6 10 9 12 13 14 8 8
9 8 7 8 7 7 8 8 7 8 5 2 2 4 5 5 5 7 5 7 7 5 9 11 13 9 9
8 8 8 8 7 7 8 8 8 10 7 5 4 4 6 8 7 4 7 8 5 8 5 8 9 9 12
9 9 7 6 4 3 5 6 7 8 8 6 7 8 7 7 7 7 9 5 8 4 6 5 5 4 4
10 8 5 4 6 6 5 5 5 7 8 8 8 8 6 7 7 9 8 7 6 7 6 6 4 2 2
9 9 7 7 7 6 5 5 7 5 4 4 4 7 7 9 8 8 8 7 7 6 5 6 5 3 3
9 9 9 8 8 6 6 6 7 7 5 3 3 2 2 6 16 8 6 6 4 4 4 5 6 5 5
9 9 9 8 9 7 7 7 8 7 6 4 4 4 6 7 3 12 6 4 4 5 5 5 7 7 6
Wind_Direction
286 301 294 296 298 295 290 281 283 271 277 279 273 275 281 280 289 297 287 279 278 280 283 283 281 277 276
292 295 296 291 302 298 295 291 281 277 278 279 275 284 289 283 294 299 296 282 278 285 288 286 281 278 278
284 294 304 312 317 308 300 298 293 284 287 276 276 285 284 290 290 291 296 304 307 309 309 304 290 283 277
281 292 297 304 290 302 313 310 311 306 285 278 288 300 301 304 286 269 270 286 301 303 305 303 294 293 292
278 282 291 295 296 306 316 322 305 289 333 331 334 314 301 298 285 271 269 271 300 302 306 307 307 303 304
271 272 281 295 292 319 310 306 309 323 344 309 309 293 298 302 300 275 252 308 311 317 316 319 318 313 311
264 263 270 279 291 301 297 289 284 301 308 292 298 280 290 296 295 248 264 300 306 314 320 324 327 321 315
255 254 254 268 265 277 285 288 284 282 292 278 325 304 304 298 303 309 356 328 325 321 325 332 332 331 319
238 236 240 252 259 272 266 278 290 275 280 278 309 311 299 290 36 35 17 4 346 329 335 337 334 331 320
237 243 248 246 240 245 251 249 259 292 138 283 306 339 313 290 342 5 359 357 344 336 336 337 340 330 324
237 241 233 230 227 225 222 222 235 242 248 326 260 296 264 296 294 313 326 332 324 322 331 334 338 347 326
235 235 230 228 230 224 221 222 230 239 249 251 259 259 279 289 282 311 318 316 299 319 317 322 329 339 340
237 241 225 226 222 219 224 231 242 241 240 219 230 244 245 254 277 296 314 305 296 296 313 320 322 321 343
244 240 213 200 220 213 223 220 240 254 237 225 226 226 243 247 259 276 282 281 296 306 300 302 311 312 322
234 231 226 212 219 201 216 217 232 240 246 248 236 236 241 253 264 265 272 272 276 285 284 301 299 291 287
230 228 223 213 210 203 209 211 227 239 239 245 251 247 242 242 227 254 262 267 271 270 272 281 298 305 298
226 225 222 210 204 201 209 214 231 238 243 234 226 219 246 256 272 217 236 251 276 275 276 266 295 299 312